Location: Emblem
(62.4273°N, 6.4710°E)
Time: 20:53:09
(UTC+02:00)

Vanguard 2 - Pass Details

Date: 10 February 2023
Orbit: 553 x 2927 km, 32.9° (Epoch: 27 March)

Event Time Altitude Azimuth Distance (km) Brightness Sun altitude
Rises 21:43:28 0° 218° (SW) 5,029 11.7 -31.9°
Reaches altitude 10° 21:48:26 10° 198° (SSW) 4,496 11.2 -32.4°
Enters shadow 21:50:27 13° 188° (S) 4,416 11.1 -32.5°
Maximum altitude 21:54:59 16° 167° (SSE) 4,530 - -33.0°
Drops below altitude 10° 22:02:42 10° 137° (SE) 5,444 - -33.7°
Sets 22:09:57 0° 120° (ESE) 6,708 - -34.3°
